Regional Weather Roundup
Issued by NWS San Angelo, TX

Home | Current Version | Previous Version | Text Only | Print | Product List | Glossary On
Versions: 1 2 3 4 5 6 7 8 9 10 11 12 13 14 15 16 17 18 19 20 21 22 23 24 25 26 27 28 29 30 31 32 33 34 35 36 37 38 39 40 41 42 43 44 45 46 47 48 49 50
000
ASUS44 KSJT 010102
RWRSJT
WEST CENTRAL TEXAS REGIONAL WEATHER ROUNDUP
NATIONAL WEATHER SERVICE SAN ANGELO TX
700 PM CST SAT JAN 31 2015

NOTE: "FAIR" INDICATES FEW OR NO CLOUDS BELOW 12,000 FEET WITH NO
SIGNIFICANT WEATHER AND/OR OBSTRUCTIONS TO VISIBILITY.

TXZ049-054-064>066-071>073-076>078-098-099-113-114-127-128-139-140-
154-155-168>170-010200
...LOCATIONS ACROSS WEST CENTRAL TEXAS...

CITY           SKY/WX    TMP DP  RH WIND       PRES   REMARKS
SAN ANGELO     CLOUDY    58  54  86 S13       29.87S
ABILENE        CLOUDY    52  51  97 S14       29.88S
DYESS AFB      CLOUDY    52  52 100 S9        29.87S
JUNCTION       CLOUDY    60  55  83 S10       29.89S
SWEETWATER     NOT AVBL
BROWNWOOD      CLOUDY    50  50 100 SE9       29.92S
COLEMAN        NOT AVBL
SONORA         NOT AVBL
OZONA          NOT AVBL
BRADY          NOT AVBL
$$

TEXAS PANHANDLE/OKLAHOMA PANHANDLE

CITY           SKY/WX    TMP DP  RH WIND       PRES   REMARKS
AMARILLO       CLOUDY    40  39  97 S9        29.84S WCI  34
BORGER         CLOUDY    42  38  85 S8        29.83F WCI  37
CANADIAN       CLOUDY    42  40  94 SW10      29.84F WCI  36
DALHART        CLOUDY    42  36  79 SW10      29.80S WCI  36
DUMAS          NOT AVBL
GUYMON         NOT AVBL
HEREFORD       NOT AVBL
PAMPA          NOT AVBL
PERRYTON       NOT AVBL
$$

SOUTHERN PANHANDLE/SOUTH PLAINS/ROLLING PLAINS

CITY           SKY/WX    TMP DP  RH WIND       PRES   REMARKS
LUBBOCK        DRZL/FOG  44  44 100 SW7       29.86R VSB 1/2
SNYDER         NOT AVBL
CHILDRESS      CLOUDY    43  42  97 SE6       29.89S FOG     WCI  39
SEMINOLE       NOT AVBL
$$

PERMIAN BASIN

CITY           SKY/WX    TMP DP  RH WIND       PRES   REMARKS
MIDLAND        CLOUDY    52  49  89 S9        29.86R
ODESSA         CLOUDY    51  48  89 CALM      29.87R
WINK           CLOUDY    54  47  77 N3        29.87R
$$

FAR WEST/SOUTHWEST MOUNTAINS/TRANS PECOS

CITY           SKY/WX    TMP DP  RH WIND       PRES   REMARKS
ALPINE         NOT AVBL
DRYDEN           N/A     54  52  93 SE3       29.87R
EL PASO        CLOUDY    55  43  63 W9        29.87S
FORT STOCKTON  MOCLDY    54  52  93 NW12      29.87R
GUADALUPE PASS CLOUDY    47  41  80 SW18G26   29.89R WCI  40
MARFA          CLOUDY    46  43  87 W23       29.98R WCI  38
PECOS          NOT AVBL
$$

DALLAS/FORT WORTH METROPLEX

CITY           SKY/WX    TMP DP  RH WIND       PRES   REMARKS
DFW AIRPORT    LGT RAIN  49  48  97 SE9       29.96F FOG
FTW MEACHAM    RAIN      49  47  93 E9        29.94F FOG
DAL-EXECUTIVE  LGT RAIN  52  48  86 SE14      29.96F FOG
GRAND PRAIRIE  NOT AVBL
ADDISON        LGT RAIN  52  52 100 SE10      29.99F
MESQUITE       LGT RAIN  50  48  93 SE3       30.00S
LANCASTER      RAIN      50  47  88 CALM      30.00S
$$

NORTH CENTRAL TEXAS

CITY           SKY/WX    TMP DP  RH WIND       PRES   REMARKS
SHRMAN/DENISON LGT RAIN  47  46  97 SE8       29.99F
GAINESVILLE    NOT AVBL
BRIDGEPORT     LGT RAIN  47  47 100 SE7       29.95F
DENTON         RAIN      47  46  97 SE7       29.96F FOG
WAXAHACHIE     RAIN      50  50 100 E5        29.99F
GRANBURY       NOT AVBL
$$

WESTERN NORTH TEXAS

CITY           SKY/WX    TMP DP  RH WIND       PRES   REMARKS
WICHITA FALLS  LGT RAIN  46  44  93 SE5       29.90F FOG
VERNON         NOT AVBL
BRECKENRIDGE   NOT AVBL
COMANCHE       CLOUDY    49  49 100 SE6       29.92S FOG
$$

CENTRAL AND SOUTH CENTRAL TEXAS

CITY           SKY/WX    TMP DP  RH WIND       PRES   REMARKS
AUSTIN/BERGSTM LGT RAIN  59  59 100 S5        29.94F FOG
WACO           LGT RAIN  54  53  97 E9        29.95F FOG
HILLSBORO      NOT AVBL
TEMPLE         CLOUDY    55  52  88 SE12      29.93F
KILLEEN-GRAY   NOT AVBL
FORT HOOD      CLOUDY    54  54  99 E18G25    29.87F FOG
GEORGETOWN     LGT RAIN  55  54  94 CALM      29.95S FOG
LAGO VISTA     RAIN      58  56  96 SE13G22   29.91F VSB 3/4
SAN MARCOS     NOT AVBL
NEW BRAUNFELS  LGT RAIN  62  60  93 SE8       29.92F
RANDOLPH AFB   CLOUDY    61  61 100 SE8       29.91F
SAN ANTONIO    CLOUDY    61  60  97 SE13      29.90F
STINSON        CLOUDY    62  60  93 SE14      29.87F
PLEASANTON     NOT AVBL
LA GRANGE      NOT AVBL
GIDDINGS       RAIN      61  59  94 SE6       30.01R
$$

EAST TEXAS

CITY           SKY/WX    TMP DP  RH WIND       PRES   REMARKS
PARIS          CLOUDY    52  34  50 SE16      30.03S
CLARKSVILLE    NOT AVBL
TYLER          CLOUDY    56  41  57 SE10      30.02F
LONGVIEW       CLOUDY    56  39  53 E5        30.05F
PALESTINE      CLOUDY    57  46  67 E10       30.03S
NACOGDOCHES    CLOUDY    55  45  67 SE7       30.07R
$$

TEXAS HILL COUNTRY AND EDWARDS PLATEAU

CITY           SKY/WX    TMP DP  RH WIND       PRES   REMARKS
LLANO          NOT AVBL
HORSESHOE BAY  CLOUDY   N/A N/A N/A W6G24     29.90R
KERRVILLE      NOT AVBL
FREDERICKSBRG  NOT AVBL
ROCKSPRINGS    NOT AVBL
HONDO          CLOUDY    60  60 100 CALM      29.93F FOG
UVALDE         NOT AVBL
DEL RIO        CLOUDY    58  55  90 SE9G18    29.89R
$$

SOUTHEAST TEXAS

CITY           SKY/WX    TMP DP  RH WIND       PRES   REMARKS
COLLEGE STN    CLOUDY    60  55  83 SE15      29.99F
CALDWELL       NOT AVBL
CROCKETT       NOT AVBL
BRENHAM        NOT AVBL
HUNTSVILLE     CLOUDY    59  52  77 SE5       30.03R
CONROE         CLOUDY    58  52  80 SE7       30.04S
HOUSTON BUSH   CLOUDY    60  55  83 SE13      30.04R
HOUSTON HOBBY  CLOUDY    59  57  93 E10       30.03S
PERLAND        CLOUDY    61  57  87 E10       30.05R
WHARTON        NOT AVBL
$$

THE UPPER TEXAS COAST

CITY           SKY/WX    TMP DP  RH WIND       PRES   REMARKS
ORANGE         CLOUDY    61  54  77 E12G17    30.09S
PORT ARTHUR    CLOUDY    59  53  80 E14       30.06F
GALVESTON      CLOUDY    60  58  92 E15       30.02F
ANGLETON       CLOUDY    61  59  93 E7        30.02R
BAY CITY       CLOUDY    64  63  96 E7        30.01R
$$

TEXAS COASTAL BEND, RIO GRANDE PLAINS DEEP SOUTH TEXAS

CITY           SKY/WX    TMP DP  RH WIND       PRES   REMARKS
VICTORIA       LGT RAIN  66  63  90 SE9       29.99R
BEEVILLE       DRIZZLE   64  64  99 SE6       29.97R
ROCKPORT       CLOUDY    65  61  87 SE7       29.97R
PORT ARANSAS   NOT AVBL
PORT LAVACA    CLOUDY    65  63  93 SE8       30.00R
CORPUS CHRISTI CLOUDY    67  62  84 SE15      29.96R
KINGSVILLE NAS LGT RAIN  69  62  78 SE13      29.96R
COTULLA        CLOUDY    66  60  81 SE14      29.86F
LAREDO         CLOUDY    66  60  81 SE16      29.88F
BROWNSVILLE    CLOUDY    68  63  84 S5        29.99R
PORT ISABEL    MOCLDY    68  63  84 S5        29.98R
HEBBRONVILLE   NOT AVBL
MCALLEN        CLOUDY    70  61  73 SE13      29.97R
WESLACO        NOT AVBL
FALFURRIAS     CLOUDY    71  59  66 SE12      29.96R
EDINBURG       NOT AVBL
$$



USA.gov is the U.S. government's official web portal to all federal, state and local government web resources and services.